Weather History for Waterloo, IA

Change the Weather History Date:

Monday, May 27, 2013

  Actual Average Record
Temperature  
Mean Temperature 61 °F 64 °F  
Max Temperature 67 °F 76 °F 93 °F (1900)
Min Temperature 55 °F 53 °F 32 °F (1971)
Degree Days  
Heating Degree Days 4 3  
Month to date heating degree days 222 176  
Since 1 July heating degree days 7233 6992  
Cooling Degree Days 0 2  
Month to date cooling degree days 33 38  
Year to date cooling degree days 37 46  
Growing Degree Days 10 (Base 50)    
Moisture  
Dew Point 58 °F    
Average Humidity 94    
Maximum Humidity 100    
Minimum Humidity 87    
Precipitation  
Precipitation 0.02 in 0.15 in 2.75 in (1973)
Month to date precipitation 7.59 3.91  
Year to date precipitation 20.36 11.50  
Snow  
Snow 0.00 in 0.00 in - ()
Month to date snowfall 1.7 0.0  
Since 1 July snowfall 50.0 35.3  
Snow Depth 0.00 in    
Sea Level Pressure  
Sea Level Pressure 29.87 in    
Wind  
Wind Speed 11 mph (ESE)    
Max Wind Speed 33 mph    
Max Gust Speed 39 mph    
Visibility 5 miles    
Events Rain    
T = Trace of Precipitation, MM = Missing Value Source: NWS Daily Summary

Daily Weather History Graph

Daily Weather History Graph

Search for Another Location

Airport:

Trip Planner

Search our weather history database for the weather conditions in past years. The results will help you decide how hot, cold, wet, or windy it might be!

Date:

Astronomy

May. 27, 2013 Rise Set
Actual Time 5:37 AM CDT 8:36 PM CDT
Civil Twilight 5:03 AM CDT 9:10 PM CDT
Nautical Twilight 4:20 AM CDT 9:53 PM CDT
Astronomical Twilight 3:30 AM CDT 10:44 PM CDT
Moon 11:14 PM CDT (5/27) 8:16 AM CDT (5/27)
Length of Visible Light 16h 06m
Length of Day
14h 59m
Waning Gibbous, 91% of the Moon is Illuminated
May 27
Waning Gibbous
May 31
Last Quarter
Jun 8
New
Jun 16
First Quarter
Jun 23
Full

Hourly Weather History & Observations

Time (CDT) Temp. Dew Point Humidity Pressure Visibility Wind Dir Wind Speed Gust Speed Precip Events Conditions
12:54 AM 55.0 °F 54.0 °F 96% 30.04 in 7.0 mi ESE 10.4 mph - N/A   Overcast
1:24 AM 55.4 °F 53.6 °F 94% 30.00 in 2.5 mi ESE 12.7 mph - N/A   Overcast
1:31 AM 55.4 °F 53.6 °F 94% 30.01 in 4.0 mi ESE 9.2 mph - N/A   Overcast
1:54 AM 55.0 °F 54.0 °F 96% 30.00 in 4.0 mi ESE 9.2 mph - N/A   Overcast
2:54 AM 55.0 °F 54.0 °F 96% 29.99 in 5.0 mi ESE 9.2 mph - N/A   Overcast
3:41 AM 55.4 °F 53.6 °F 94% 29.96 in 2.5 mi East 10.4 mph - N/A   Overcast
3:51 AM 55.4 °F 53.6 °F 94% 29.95 in 2.0 mi ESE 11.5 mph - N/A   Overcast
3:54 AM 55.0 °F 54.0 °F 96% 29.95 in 2.0 mi ESE 11.5 mph - N/A   Overcast
4:13 AM 55.4 °F 53.6 °F 94% 29.93 in 3.0 mi ESE 12.7 mph - N/A   Overcast
4:54 AM 55.0 °F 54.0 °F 96% 29.94 in 6.0 mi ESE 11.5 mph - N/A   Overcast
5:54 AM 55.9 °F 55.0 °F 97% 29.95 in 7.0 mi ESE 10.4 mph - N/A   Overcast
6:54 AM 55.9 °F 55.0 °F 97% 29.96 in 6.0 mi ESE 9.2 mph - 0.00 in Rain Light Rain
7:54 AM 55.9 °F 55.9 °F 100% 29.93 in 1.8 mi ESE 9.2 mph - 0.01 in Rain Light Rain
8:15 AM 55.4 °F 55.4 °F 100% 29.89 in 0.8 mi ESE 13.8 mph - 0.00 in   Overcast
8:47 AM 57.2 °F 55.4 °F 94% 29.86 in 1.0 mi SE 16.1 mph - 0.00 in   Overcast
8:54 AM 57.0 °F 55.9 °F 96% 29.85 in 1.0 mi SE 16.1 mph 23.0 mph 0.00 in   Overcast
9:54 AM 57.9 °F 57.0 °F 97% 29.83 in 1.2 mi SE 15.0 mph 25.3 mph 0.00 in   Overcast
10:36 AM 57.2 °F 57.2 °F 100% 29.83 in 3.0 mi East 10.4 mph 34.5 mph 0.01 in Rain Light Rain
10:54 AM 59.0 °F 57.9 °F 96% 29.88 in 5.0 mi East 3.5 mph - 0.01 in   Overcast
11:07 AM 59.0 °F 57.2 °F 94% 29.88 in 5.0 mi SSE 5.8 mph - N/A   Overcast
11:43 AM 59.0 °F 57.2 °F 94% 29.88 in 2.5 mi ESE 6.9 mph - N/A   Overcast
11:54 AM 60.1 °F 59.0 °F 96% 29.87 in 2.5 mi East 9.2 mph - N/A   Overcast
12:31 PM 60.8 °F 60.8 °F 100% 29.85 in 3.0 mi East 11.5 mph - N/A   Overcast
12:54 PM 62.1 °F 60.1 °F 93% 29.80 in 4.0 mi East 19.6 mph 24.2 mph N/A   Overcast
1:22 PM 62.6 °F 60.8 °F 94% 29.81 in 6.0 mi East 18.4 mph 25.3 mph N/A   Overcast
1:54 PM 64.0 °F 60.1 °F 87% 29.83 in 10.0 mi ESE 12.7 mph - N/A   Overcast
2:03 PM 64.4 °F 60.8 °F 88% 29.83 in 10.0 mi ESE 12.7 mph - N/A   Overcast
2:54 PM 64.0 °F 60.1 °F 87% 29.83 in 10.0 mi ESE 11.5 mph - N/A   Overcast
3:54 PM 64.0 °F 61.0 °F 90% 29.81 in 8.0 mi East 6.9 mph - N/A   Overcast
4:35 PM 64.4 °F 60.8 °F 88% 29.79 in 8.0 mi East 12.7 mph - N/A   Overcast
4:54 PM 64.0 °F 61.0 °F 90% 29.79 in 8.0 mi ESE 11.5 mph - N/A   Overcast
5:54 PM 64.9 °F 62.1 °F 90% 29.79 in 7.0 mi East 8.1 mph - N/A   Overcast
6:39 PM 66.2 °F 62.6 °F 88% 29.78 in 8.0 mi ESE 12.7 mph - N/A   Mostly Cloudy
6:51 PM 64.4 °F 62.6 °F 94% 29.77 in 7.0 mi ESE 9.2 mph - N/A   Scattered Clouds
6:54 PM 64.9 °F 62.1 °F 90% 29.77 in 7.0 mi ESE 8.1 mph - N/A   Scattered Clouds
7:43 PM 64.4 °F 62.6 °F 94% 29.78 in 8.0 mi East 11.5 mph - N/A   Mostly Cloudy
7:54 PM 64.9 °F 62.1 °F 90% 29.78 in 7.0 mi ESE 10.4 mph - N/A   Overcast
8:54 PM 64.0 °F 62.1 °F 93% 29.77 in 7.0 mi ESE 11.5 mph - N/A   Overcast
9:54 PM 63.0 °F 61.0 °F 93% 29.77 in 7.0 mi ESE 16.1 mph - N/A   Overcast
10:01 PM 62.6 °F 60.8 °F 94% 29.77 in 7.0 mi ESE 13.8 mph - N/A   Overcast
10:54 PM 62.1 °F 61.0 °F 96% 29.77 in 5.0 mi ESE 13.8 mph - N/A   Overcast
11:54 PM 61.0 °F 60.1 °F 97% 29.77 in 3.0 mi East 10.4 mph - N/A   Overcast